Regional Weather Roundup
Issued by NWS

Home | Current Version | Previous Version | Text Only | Print | Product List | Glossary On
Versions: 1 2 3 4 5 6 7 8 9 10 11 12 13 14 15 16 17 18 19 20 21 22 23 24 25 26 27 28 29 30 31 32 33 34 35 36 37 38 39 40 41 42 43 44 45 46 47 48 49 50
000
ASUS45 KSLC 011210
RWRUT
UTAH REGIONAL WEATHER ROUNDUP
NATIONAL WEATHER SERVICE SALT LAKE CITY UT
600 AM MDT SAT AUG 01 2015

UTZ001>011-023>025-011300-

NORTHERN UTAH

CITY           SKY/WX    TMP DP  RH WIND       PRES   REMARKS
BRIGHAM CITY   CLEAR     61  37  41 CALM      30.12R
HILL AFB       NOT AVBL
LOGAN          CLEAR     49  43  80 CALM      30.16R
OGDEN          PTCLDY    65  33  30 S12       30.11S
PROVO AIRPORT  PTCLDY    57  34  41 W5        30.15R
SALT LAKE CITY PTCLDY    66  34  30 E3        30.11R
VERNAL         CLEAR     61  34  36 CALM      30.18R
WENDOVER       MOCLDY    70  30  23 NW7       30.12R
HEBER CITY     PTCLDY    46  34  61 CALM      30.25S
WEST JORDAN    CLEAR     63  34  34 CALM      30.13S

$$

UTZ012>022-026-027-011300-

SOUTHERN/CENTRAL UTAH

CITY           SKY/WX    TMP DP  RH WIND       PRES   REMARKS
BLANDING       CLOUDY    66  54  65 E3        30.34S
BRYCE CANYON   PTCLDY    47  40  76 CALM      30.37F
CEDAR CITY     MOCLDY    66  43  43 SE6       30.21S
DELTA          MOCLDY    60  26  27 N5        30.14R
HANKSVILLE     CLEAR     70  48  46 E3        30.14R
MILFORD        MOCLDY    61  43  51 S7        30.15S
MOAB/CYNLANDS  CLEAR     71  50  47 SW5       30.12R
PRICE          CLEAR     63  28  26 NE9       30.23R
ST GEORGE      MOSUNNY   79  54  41 SE8       30.04S
KANAB          PTCLDY    64  54  68 CALM      30.24S

$$

REGIONAL REPORTS     COLORADO/ARIZONA

CITY           SKY/WX    TMP DP  RH WIND       PRES   REMARKS
CRAIG, CO      CLEAR     42  34  73 W3        30.28R
GRAND JUNCTION PTCLDY    68  46  45 E9        30.17R
RIFLE          PTCLDY    57  40  52 CALM      30.25R
MONTROSE       PTCLDY    61  46  57 S5        30.28R
CORTEZ         CLOUDY    64  58  80 CALM      30.27S
PAGE, AZ       MOCLDY    79  52  38 CALM      30.12S
GRAND CANYON   CLOUDY    60  55  83 CALM      30.31S
KINGMAN        CLOUDY    80  53  39 SE10      30.07R
FLAGSTAFF      LGT RAIN  58  56  93 CALM      30.34S

$$

REGIONAL REPORTS    NEVADA/IDAHO/WYOMING

CITY           SKY/WX    TMP DP  RH WIND       PRES   REMARKS
LAS VEGAS, NV  CLOUDY    89  54  30 S3        29.89S
ELY            MOCLDY    54  26  34 S9        30.27S
ELKO           MOCLDY    55  26  32 CALM      30.18F
POCATELLO, ID  CLEAR     49  38  65 CALM      30.16S
BURLEY         CLEAR     52  42  69 CALM      30.11S
EVANSTON, WY   PTCLDY    56  27  32 SE6       30.32S
ROCK SPRINGS   MOCLDY    56  27  32 S5        30.29R
KEMMERER       PTCLDY    48  32  53 NW10      30.34R

$$


USA.gov is the U.S. government's official web portal to all federal, state and local government web resources and services.